[[{"header":{"parameterUnit":"m.s-1","parameterCategory":1,"la1":30.2991,"la2":30.254,"lo1":-89.0895,"lo2":-89.0444,"dy":0.0017,"dx":0.0017,"nx":28,"ny":28,"refTime":"2023-09-22T09:00:00:Z","depth":0,"parameterNumber":2,"parameterNumberName":"U-component_of_WINDS"},"data":[0,0,0,0,0,0,0,0,0,0,0,0,0,0,0,0,0,0,0,0,0,0,0,0,0,0,0,0,0,0,0,0,0,0,0,0,0,0,0,0,0,0,0,0,0,0,0,0,0,0,0,0,0,0,0,0,0,0,1.3517,1.3518,0,1.3609,1.361,1.3611,1.3628,1.3627,1.3626,1.3626,1.3723,1.3726,1.373,0,0,0,0,0,0,0,0,0,0,0,0,0,1.3356,1.3358,1.3517,1.3518,1.3519,1.3609,1.361,1.3612,1.3628,1.3627,1.3626,1.3625,1.3722,1.3726,1.373,0,0,0,0,0,0,0,0,0,0,0,0,0,1.3435,1.3359,1.3517,1.3538,1.3541,1.3609,1.361,1.3612,1.3628,1.3627,1.3626,1.3625,1.3721,1.3726,1.3731,1.3785,0,0,1.3746,1.3748,0,0,0,0,0,0,0,0,1.343,1.3441,1.3534,1.3537,1.354,1.3606,1.3589,1.367,1.3628,1.3595,1.3626,1.3624,1.3685,1.3693,1.3713,1.3789,1.3793,1.3746,1.3749,1.3751,1.3753,0,0,0,0,0,0,0,1.3425,1.3437,1.3554,1.3535,1.3539,1.3543,1.3553,1.3605,1.3646,1.3598,1.3599,1.361,1.3687,1.3708,1.3716,1.3795,1.3746,1.3751,1.3754,1.3756,1.3917,1.3919,0,0,0,0,0,0,1.3415,1.3432,1.3551,1.3556,1.3481,1.3547,1.3558,1.3586,1.3645,1.3653,1.3611,1.361,1.37,1.371,1.3719,1.3784,1.3751,1.3756,1.3759,1.3916,1.3918,1.3919,0,0,0,0,0,0,1.3412,1.3425,1.3547,1.3495,1.351,1.3551,1.3582,1.3588,1.361,1.3655,1.3662,1.3625,1.37,1.3712,1.3767,1.3788,1.3758,1.3763,1.3915,1.3917,1.3918,1.3916,0,0,0,0,0,0,1.3407,1.3424,1.3445,1.3495,1.3513,1.3593,1.3583,1.3591,1.3618,1.3618,1.367,1.3678,1.37,1.376,1.3772,1.3794,1.3767,1.3913,1.3915,1.3918,1.3915,1.3918,1.3921,0,0,0,0,0,1.3401,1.3442,1.3446,1.346,1.354,1.3594,1.3605,1.3629,1.362,1.3641,1.3669,1.3676,1.3784,1.3765,1.378,1.3803,1.3912,1.3915,1.3918,1.3913,1.3917,1.392,0,0,0,0,0,0,1.3395,1.3449,1.3454,1.3512,1.3548,1.3597,1.3625,1.3632,1.3673,1.3672,1.37,1.3712,1.3765,1.379,1.3769,1.3857,1.3847,1.3853,1.3839,1.3843,1.3846,1.3838,1.3771,0,0,0,0,0,1.34,1.3439,1.3485,1.3532,1.3549,1.3584,1.3609,1.3623,1.3662,1.3678,1.3711,1.3749,1.3792,1.3819,1.3861,1.3919,1.3929,1.3942,1.3945,1.3947,1.3951,1.3982,1.3987,1.3929,1.3929,1.3929,0,0,1.3412,1.3446,1.347,1.3531,1.3561,1.3601,1.3597,1.364,1.367,1.3685,1.3738,1.3764,1.3809,1.3865,1.3891,1.3887,1.397,1.3951,1.3952,1.3955,1.3985,1.3991,1.3995,1.3931,1.393,1.393,0,0,1.3453,1.3484,1.3524,1.3554,1.3598,1.362,1.363,1.3678,1.3694,1.3748,1.376,1.3796,1.3869,1.3899,1.3924,1.3974,1.3981,1.3987,1.4003,1.4032,1.4036,1.404,1.4056,1.4062,1.3992,1.3992,1.3992,0,1.3462,1.3522,1.3545,1.3587,1.3613,1.3627,1.3668,1.3696,1.3753,1.377,1.3765,1.3855,1.3886,1.3948,1.396,1.3981,1.3992,1.3981,1.4034,1.4038,1.4042,1.4058,1.4064,1.3992,1.3992,1.3992,1.3992,0,1.353,1.3571,1.3599,1.365,1.368,1.3722,1.3751,1.3778,1.379,1.3812,1.3866,1.3904,1.3952,1.3968,1.3981,1.4032,1.4028,1.4028,1.4018,1.4048,1.4063,1.4069,1.3992,1.3992,1.3992,1.3992,0,0,1.357,1.3632,1.3642,1.3664,1.3714,1.3746,1.3788,1.3833,1.3855,1.3894,1.3928,1.3988,1.3988,1.4016,1.4033,1.4058,1.4093,1.4055,1.4057,1.4059,1.4149,1.4147,1.4154,1.4098,1.4099,1.4101,1.4144,0,1.3616,1.3689,1.371,1.3772,1.3809,1.3822,1.3858,1.3892,1.3914,1.395,1.3975,1.4016,1.4013,1.403,1.4056,1.4083,1.4111,1.4081,1.413,1.4132,1.4117,1.4162,1.4161,1.4201,1.4151,1.4152,1.4152,0,1.3679,1.3715,1.378,1.3822,1.3838,1.387,1.3912,1.3946,1.3985,1.3999,1.4029,1.4043,1.4086,1.4074,1.4134,1.4113,1.4134,1.4151,1.4153,1.4158,1.4143,1.4166,1.4214,1.422,1.4162,1.4162,1.4161,0,1.3699,1.3765,1.3811,1.3831,1.3881,1.3903,1.3925,1.3963,1.3988,1.4025,1.4042,1.4085,1.4108,1.414,1.4165,1.4154,1.4222,1.4212,1.4234,1.4233,1.4247,1.4246,1.4297,1.4263,1.4263,1.4263,1.4263,0,1.3746,1.3785,1.3821,1.3849,1.3893,1.3917,1.3959,1.3982,1.4015,1.4048,1.4063,1.4094,1.4125,1.416,1.418,1.4225,1.4236,1.4248,1.4253,1.4246,1.4244,1.426,1.4257,1.4265,1.4264,1.4264,1.4264,0,1.3776,1.3802,1.3853,1.3896,1.3908,1.3937,1.3974,1.4003,1.4024,1.4066,1.4077,1.4112,1.4154,1.4181,1.4236,1.4249,1.4298,1.4303,1.4284,1.4286,1.4305,1.4303,1.4368,1.4377,1.4338,1.4339,1.4339,0,1.3804,1.3834,1.3879,1.3901,1.3923,1.396,1.3985,1.4009,1.4035,1.408,1.4102,1.4145,1.418,1.4246,1.4276,1.4317,1.4322,1.4342,1.4329,1.432,1.4321,1.4318,1.432,1.4344,1.4345,1.4345,1.4345,0,1.385,1.3861,1.3896,1.3935,1.3964,1.3996,1.4029,1.4046,1.4077,1.4105,1.4146,1.4174,1.4227,1.4269,1.4312,1.4336,1.4345,1.4349,1.4356,1.4349,1.4336,1.4341,1.4288,1.4347,1.4347,1.4347,1.4347,1.4347,1.3879,1.3905,1.394,1.3978,1.4004,1.4034,1.4061,1.4086,1.4121,1.4165,1.4178,1.4221,1.4258,1.4316,1.434,1.4375,1.4373,1.4383,1.4386,1.4387,1.4386,1.4331,1.4383,1.4383,1.4383,1.4383,1.4383,0,1.3924,1.3947,1.3981,1.4025,1.4054,1.4059,1.4095,1.412,1.4157,1.419,1.4223,1.427,1.431,1.4343,1.4384,1.4405,1.441,1.4415,1.4413,1.4418,1.4387,1.4376,1.441,1.441,1.441,1.441,1.441,1.441,1.3951,1.3994,1.4009,1.4065,1.4088,1.4129,1.4148,1.4175,1.4201,1.4253,1.4285,1.4306,1.4338,1.4381,1.4418,1.4427,1.444,1.4444,1.4453,1.4423,1.442,1.4417,1.4407,1.4447,1.4447,1.4481,1.4481,1.4482]},{"header":{"parameterUnit":"m.s-1","parameterCategory":1,"la1":30.2991,"la2":30.254,"lo1":-89.0895,"lo2":-89.0444,"dy":0.0017,"dx":0.0017,"nx":28,"ny":28,"refTime":"2023-09-22T09:00:00:Z","depth":0,"parameterNumber":3,"parameterNumberName":"V-component_of_WINDS"},"data":[0,0,0,0,0,0,0,0,0,0,0,0,0,0,0,0,0,0,0,0,0,0,0,0,0,0,0,0,0,0,0,0,0,0,0,0,0,0,0,0,0,0,0,0,0,0,0,0,0,0,0,0,0,0,0,0,0,0,1.3157,1.3156,0,1.3034,1.3032,1.3031,1.2953,1.2953,1.2953,1.2952,1.2822,1.2819,1.2816,0,0,0,0,0,0,0,0,0,0,0,0,0,1.332,1.3318,1.3157,1.3156,1.3154,1.3034,1.3032,1.3031,1.2954,1.2953,1.2953,1.2952,1.2823,1.282,1.2816,0,0,0,0,0,0,0,0,0,0,0,0,0,1.3228,1.3317,1.3157,1.3101,1.3095,1.3034,1.3032,1.303,1.2954,1.2953,1.2952,1.2952,1.2824,1.282,1.2815,1.28,0,0,1.2801,1.2799,0,0,0,0,0,0,0,0,1.3234,1.3222,1.3111,1.3105,1.3098,1.3008,1.3042,1.2953,1.2954,1.3007,1.2952,1.2951,1.2884,1.2875,1.2853,1.2794,1.2788,1.2801,1.2798,1.2796,1.2795,0,0,0,0,0,0,0,1.324,1.3227,1.3108,1.3109,1.3101,1.308,1.3067,1.3025,1.2951,1.3002,1.2997,1.2983,1.2881,1.2858,1.2849,1.2786,1.2801,1.2797,1.2794,1.2792,1.2705,1.2705,0,0,0,0,0,0,1.3256,1.3233,1.3112,1.3105,1.3166,1.3078,1.3063,1.3038,1.2951,1.2937,1.2984,1.298,1.2866,1.2855,1.2845,1.2819,1.2796,1.2792,1.2789,1.2704,1.2705,1.2705,0,0,0,0,0,0,1.326,1.3246,1.3117,1.3167,1.3149,1.3076,1.3049,1.3036,1.3013,1.2937,1.2923,1.2974,1.2865,1.2851,1.2811,1.2813,1.279,1.2786,1.2704,1.2705,1.2705,1.2768,0,0,0,0,0,0,1.3265,1.3248,1.3243,1.3168,1.3147,1.3088,1.3049,1.3034,1.3005,1.2999,1.2924,1.2911,1.2863,1.2818,1.2807,1.2806,1.2782,1.2703,1.2704,1.2705,1.2766,1.2771,1.2776,0,0,0,0,0,1.3271,1.3265,1.3243,1.3229,1.3139,1.3088,1.3076,1.3022,1.3006,1.2999,1.295,1.2914,1.2815,1.2815,1.2801,1.2799,1.2703,1.2704,1.2705,1.2763,1.277,1.2775,0,0,0,0,0,0,1.3342,1.3254,1.3229,1.3199,1.3152,1.3075,1.3065,1.3031,1.2986,1.2982,1.2916,1.2899,1.2866,1.2828,1.283,1.2778,1.2755,1.2753,1.2804,1.2809,1.2814,1.2823,1.2778,0,0,0,0,0,1.3354,1.3321,1.3246,1.3227,1.3205,1.3139,1.3115,1.3077,1.3025,1.3004,1.2952,1.2902,1.2859,1.2832,1.2789,1.276,1.2741,1.2752,1.2757,1.2761,1.276,1.2739,1.2742,1.2709,1.2709,1.2709,0,0,1.3379,1.3327,1.331,1.324,1.3199,1.3164,1.3123,1.3089,1.3062,1.2998,1.2958,1.2918,1.2857,1.2822,1.2804,1.279,1.2765,1.2762,1.2767,1.2763,1.2741,1.2744,1.2747,1.2709,1.2709,1.2709,0,0,1.3406,1.3365,1.3343,1.3302,1.3241,1.3197,1.3192,1.312,1.3091,1.3049,1.3,1.2966,1.2895,1.2853,1.2822,1.2831,1.2795,1.2819,1.2844,1.2825,1.2827,1.2829,1.283,1.2832,1.2818,1.2818,1.2818,0,1.3444,1.3392,1.3336,1.3304,1.3273,1.3215,1.3191,1.3154,1.3081,1.306,1.3046,1.2953,1.2908,1.2861,1.2864,1.2841,1.2831,1.2826,1.2832,1.2833,1.2834,1.2834,1.2835,1.2821,1.2821,1.282,1.282,0,1.344,1.3405,1.3394,1.3326,1.3294,1.3267,1.3204,1.3178,1.3143,1.31,1.3056,1.3,1.2943,1.2929,1.2895,1.2877,1.287,1.2845,1.2819,1.2841,1.284,1.284,1.2826,1.2825,1.2824,1.2823,0,0,1.3509,1.3409,1.3406,1.3373,1.33,1.327,1.3239,1.3184,1.3162,1.3114,1.3084,1.3024,1.3,1.2965,1.2924,1.2907,1.2915,1.2884,1.2881,1.289,1.2889,1.2908,1.2909,1.2891,1.2891,1.2891,1.2894,0,1.3524,1.3466,1.3414,1.3374,1.3339,1.3282,1.3254,1.3206,1.3164,1.3127,1.308,1.3038,1.301,1.2988,1.2969,1.2919,1.2914,1.2918,1.2861,1.286,1.2877,1.2909,1.2929,1.2934,1.2893,1.2893,1.2893,0,1.3534,1.3488,1.3445,1.3374,1.3357,1.3333,1.3277,1.3243,1.3185,1.3156,1.3117,1.3074,1.3036,1.3015,1.296,1.2964,1.2937,1.2908,1.2907,1.2899,1.2877,1.29,1.2935,1.2935,1.2892,1.2892,1.2893,0,1.3586,1.3513,1.3478,1.3451,1.3368,1.3352,1.3316,1.3258,1.3227,1.3178,1.3157,1.3104,1.3075,1.3033,1.2977,1.2967,1.2927,1.2902,1.2899,1.2901,1.2893,1.2894,1.2923,1.2878,1.2878,1.2878,1.2878,0,1.3607,1.3583,1.35,1.3478,1.3448,1.3386,1.3358,1.3317,1.3265,1.3232,1.318,1.315,1.3077,1.3038,1.2993,1.2953,1.294,1.2914,1.2902,1.2918,1.2921,1.2899,1.2897,1.2878,1.2878,1.2878,1.2878,0,1.366,1.3604,1.3561,1.3485,1.3465,1.3446,1.338,1.3355,1.331,1.3269,1.3256,1.3185,1.3136,1.3076,1.3007,1.2976,1.294,1.2923,1.296,1.2953,1.2953,1.2954,1.2968,1.2966,1.2925,1.2925,1.2926,0,1.3677,1.3657,1.3578,1.3553,1.3519,1.3479,1.3448,1.3386,1.3356,1.3287,1.327,1.3217,1.3171,1.3095,1.3036,1.2983,1.2963,1.2971,1.2954,1.297,1.2961,1.2962,1.2959,1.2976,1.2977,1.2977,1.2978,0,1.3712,1.3685,1.3643,1.359,1.3554,1.351,1.3462,1.3444,1.3372,1.334,1.329,1.3254,1.3184,1.3131,1.307,1.303,1.2991,1.2984,1.298,1.2995,1.3017,1.3003,1.2971,1.2983,1.2983,1.2982,1.2982,1.2982,1.3746,1.3725,1.3666,1.362,1.3578,1.3535,1.3507,1.3459,1.3416,1.3355,1.332,1.327,1.321,1.3124,1.3086,1.3044,1.303,1.3026,1.3024,1.3023,1.3027,1.3025,1.3033,1.3033,1.3033,1.3032,1.3032,0,1.3777,1.3736,1.3694,1.363,1.3593,1.3561,1.3507,1.3477,1.3434,1.3383,1.3338,1.3279,1.3227,1.3164,1.3107,1.3086,1.3067,1.3073,1.3073,1.3064,1.3044,1.3052,1.309,1.309,1.309,1.309,1.309,1.309,1.3789,1.375,1.3715,1.3655,1.3613,1.3565,1.3536,1.3495,1.3453,1.339,1.3346,1.3306,1.3249,1.3187,1.3137,1.312,1.31,1.3112,1.3089,1.3071,1.3066,1.3061,1.3069,1.3109,1.3109,1.3112,1.3113,1.3113]}]]